Location: Bandys
(35.4750°N, 81.0830°W)
Time: 22:26:38
(UTC-04:00)

Daily predictions for brighter satellites

Satellite Brightness Start Highest point End
(mag) Time Altitude Azimuth Time Altitude Azimuth Time Altitude Azimuth
H-2A R/B 4.0 19:27:12 10° WSW 19:31:54 53° S 20:03:43 10° ESE
USA 229 DEB 3.9 20:27:52 10° S 20:34:18 47° ESE 20:40:51 10° NE
USA 229 3.9 20:27:59 10° S 20:34:25 47° ESE 20:40:56 10° NE
Cosmos 1655 Rocket 4.4 20:29:28 10° N 20:35:32 44° E 20:41:31 10° SSE
Cosmos 2279 Rocket 4.2 20:31:06 10° SSE 20:37:06 51° E 20:43:05 10° NNE
Cosmos 1862 4.1 20:33:24 10° NNE 20:37:07 34° E 20:40:48 10° SE
ATLAS CENTAUR R/B 3.9 20:36:19 10° WNW 20:39:05 26° SW 20:44:46 10° S
Cosmos 2322 Rocket 3.0 20:33:36 10° SW 20:39:05 57° WNW 20:44:38 10° NNE
Cosmos 1408 2.6 20:37:15 10° N 20:40:52 60° E 20:44:27 10° SSE
HJ-1C 3.9 20:41:15 10° S 20:44:40 66° W 20:48:05 10° NNW
Cosmos 1627 Rocket 4.5 20:38:29 10° N 20:44:40 75° E 20:50:46 10° SSE
Cosmos 1825 2.1 20:41:35 10° N 20:45:23 68° E 20:49:10 10° SSE
Cosmos 2360 Rocket 2.2 20:39:53 10° S 20:45:24 59° ESE 20:50:58 10° NNE
FALCON 9 R/B 0.3 20:42:13 10° W 20:45:28 74° S 20:47:35 10° E
H-2A R/B 3.0 20:48:56 10° S 20:52:48 73° W 20:56:39 10° NNW
ATLAS 5 CENTAUR R/B 2.7 20:47:59 10° NNW 20:53:57 54° NE 21:00:03 11° SE
COSMOS 2428 3.5 20:50:02 10° SSE 20:54:52 29° ESE 20:59:43 10° NE
Resurs 01 Rocket 1.7 20:53:57 10° S 20:58:24 83° WSW 21:02:52 10° NNW
Helios 1A 3.5 20:58:27 10° SE 21:02:25 42° ENE 21:06:27 10° N
USA 267 3.8 20:56:06 10° NE 21:02:32 63° NW 21:08:58 10° WSW
Cosmos 1939 Rocket 3.9 21:00:53 14° SE 21:03:33 27° ENE 21:06:56 10° NNE
Atlas Centaur 2 2.8 21:00:51 10° WSW 21:06:43 57° S 21:12:51 15° ESE
CZ-4B DEB 3.7 21:06:08 19° ESE 21:07:33 27° ENE 21:10:10 10° NNE
Cosmos 2322 3.7 21:02:18 10° SSW 21:08:00 80° ESE 21:13:43 10° NNE
Okean 1-7 4.2 21:08:36 17° SE 21:10:44 23° E 21:14:14 10° NE
SL-16 R/B 4.3 21:06:28 10° WSW 21:11:26 31° WNW 21:16:27 10° N
YAOGAN 6 4.2 21:11:36 17° E 21:12:34 18° ENE 21:15:07 10° NNE
Cosmos 1733 Rocket 3.2 21:09:06 10° N 21:13:34 80° W 21:18:00 10° S
Sich 1 Rocket 4.1 21:10:19 10° N 21:14:36 41° E 21:17:37 18° SE
OAO 3 Rocket 3.6 21:16:39 10° W 21:21:21 50° SSW 21:24:13 22° SE
Cosmos 1862 Rocket 4.4 21:17:59 10° SSW 21:22:21 54° W 21:26:46 10° N
Meteor 2-10 Rocket 3.7 21:18:55 10° S 21:24:44 85° E 21:30:31 10° N
CZ-2D R/B 4.5 21:21:56 10° S 21:25:37 41° W 21:29:20 10° NNW
Cosmos 2237 Rocket 3.8 21:26:55 16° E 21:26:55 16° E 21:29:20 10° ENE
Spot 2 Rocket 4.4 21:21:49 10° S 21:26:43 48° W 21:31:37 10° NNW
Cosmos 968 Rocket 3.5 21:21:36 10° NNW 21:26:49 72° ENE 21:30:31 20° SSE
CZ-4C R/B 4.5 21:22:13 10° N 21:27:09 19° NE 21:31:55 11° E
Cosmos 1844 Rocket 3.8 21:22:44 10° N 21:27:28 27° ENE 21:29:47 21° E
Cosmos 2333 4.3 21:24:51 10° S 21:30:23 55° ESE 21:36:00 10° NNE
Cosmos 2278 Rocket 4.1 21:31:03 10° NNE 21:33:41 13° NE 21:35:33 11° ENE
Cosmos 2333 Rocket 3.0 21:32:00 24° SE 21:33:50 28° ESE 21:38:40 10° NE
Okean 2 Rocket 4.1 21:30:40 10° NNE 21:34:33 28° ENE 21:35:20 26° E
USA 234 4.3 21:30:18 16° E 21:34:51 35° NNE 21:40:38 10° NNW
Lacrosse 4 Rocket 4.2 21:34:42 10° WNW 21:37:18 16° WSW 21:39:55 10° SW
Helios 1B rocket 3.1 21:35:24 10° N 21:39:26 56° WNW 21:43:26 10° SSW
Cosmos 1703 Rocket 3.5 21:38:58 10° S 21:43:25 89° WNW 21:47:50 10° N
Envisat 3.2 21:42:56 16° S 21:47:00 72° WSW 21:52:06 10° NNW
Cosmos 2219 Rocket 2.3 21:42:14 12° S 21:47:09 48° ESE 21:52:31 10° NNE
SAR-Lupe-4 4.5 21:47:47 20° SSW 21:49:55 46° W 21:53:24 10° NNW
USA 186 4.3 21:48:56 10° SW 21:50:57 18° W 21:53:04 10° NW
Meteor 1-29 4.3 21:48:37 10° N 21:51:54 41° WNW 21:55:07 10° SW
SPOT 5 3.7 21:57:52 31° ENE 21:58:05 31° ENE 22:02:07 10° N
Gbstr 26 Del rocket 4.4 21:51:33 10° SSW 21:58:47 61° SE 22:06:46 10° NE
SeaSat 1 4.2 21:58:47 17° ENE 21:59:35 17° NE 22:02:44 10° NNE
SEDSat Delta rocket 4.1 21:55:48 10° W 22:00:30 40° SSW 22:01:32 37° SSE
NOSS 0 Rocket 4.1 22:00:22 35° SSE 22:02:21 46° ESE 22:08:11 10° NE
ERS-1 Rocket 2.9 22:01:58 44° SSE 22:03:33 74° ENE 22:08:33 10° N
H-2A R/B 3.3 22:06:42 23° ENE 22:06:42 23° ENE 22:10:19 10° NNE
Cosmos 1867 4.4 22:03:13 10° NW 22:08:22 43° WSW 22:10:58 26° SSW
Sakura Rocket 4.2 22:05:24 10° WSW 22:07:34 25° SW 22:07:34 25° SW
Milstar 3 3.8 22:03:15 10° W 22:09:59 30° SSW 22:11:48 26° S
Cosmos 2263 Rocket 4.2 22:06:16 10° NW 22:10:33 23° WSW 22:14:49 10° SSW
Cosmos 2266 Rocket 4.2 22:05:59 10° N 22:12:18 72° W 22:16:21 24° S
Cosmos 1570 Rocket 3.9 22:11:35 41° S 22:13:24 73° ESE 22:18:40 10° NNE
Cosmos 2221 Rocket 4.4 22:14:06 18° SSW 22:17:07 48° W 22:21:25 10° N
NOSS 3-1 (C) 3.4 22:11:33 10° SW 22:17:13 76° WNW 22:23:31 10° NNE
MetOp-B 4.1 22:17:11 56° SE 22:18:08 69° ENE 22:23:28 10° N
Cosmos 1782 2.8 22:18:24 81° NNW 22:18:24 81° NNW 22:22:14 10° N
YAOGAN 11 4.1 22:20:58 65° NE 22:20:58 65° NE 22:25:01 10° N
H-2A R/B 4.2 22:27:25 16° NE 22:27:25 16° NE 22:29:03 10° NNE
Cosmos 2208 Rocket 3.9 22:25:07 48° SSW 22:26:41 87° ESE 22:32:01 10° NNE
Terra 3.7 22:32:31 19° NE 22:32:31 19° NE 22:34:51 10° NNE
Meteor 1-27 Rocket 3.8 22:33:11 56° ENE 22:33:11 56° ENE 22:38:15 10° NNE
NOSS 3-1 (A) 3.4 22:29:21 10° SW 22:35:02 78° WNW 22:41:22 10° NNE
ATLAS 2AS CENTAUR R/B 4.4 22:39:31 20° ENE 22:39:31 20° ENE 22:42:35 10° NE
ATLAS 5 CENTAUR R/B 4.2 22:33:27 10° WNW 22:38:26 25° WSW 22:41:38 17° SSW
COSMOS 2428 4.3 22:33:53 10° SW 22:38:58 33° WNW 22:44:07 10° N
ARGOS 3.0 22:41:15 84° SE 22:41:25 87° ENE 22:46:50 10° NNW
NOAA 11 4.3 22:41:21 58° SSW 22:42:13 68° WSW 22:47:41 10° NNW
Cosmos 1244 Rocket 4.4 22:35:56 10° N 22:42:13 90° WNW 22:43:18 64° S
Cosmos 1980 3.6 22:42:14 72° SSW 22:42:51 89° WNW 22:48:31 10° NNE
Cosmos 1553 Rocket 3.8 22:46:05 73° ESE 22:46:24 75° E 22:52:36 10° N
Cosmos 1606 4.2 22:48:19 34° NW 22:48:19 34° NW 22:50:59 10° N
SL-08 R/B 4.5 22:41:30 10° N 22:47:23 62° ENE 22:47:23 62° ENE
Cosmos 1844 3.6 22:44:04 10° NNW 22:49:43 77° WSW 22:49:48 77° WSW
SL-16 R/B 3.9 22:53:21 20° NE 22:53:21 20° NE 22:55:16 10° NE
SPOT 1/Viking Rocket 3.7 22:55:00 71° N 22:55:00 71° N 22:59:38 10° NNW
Atlas Centaur 2 3.2 22:49:28 10° W 22:55:28 46° SSW 22:55:28 46° SSW
MOS 1-B Rocket 4.0 23:02:57 63° WSW 23:03:15 64° WSW 23:08:49 10° NNW
Meteor 1-11 Rocket 3.9 22:59:15 10° N 23:04:01 67° N 23:04:01 67° N
Cosmos 2237 Rocket 2.7 23:08:38 53° W 23:09:24 58° WNW 23:15:01 10° NNE
Cosmos 1844 Rocket 3.7 23:06:20 10° NW 23:11:20 35° WSW 23:11:29 35° WSW
Meteor 2-11 Rocket 4.5 23:12:02 75° N 23:12:02 75° N 23:17:34 10° N
CZ-4C R/B 2.8 23:09:21 10° NNW 23:16:43 81° ENE 23:17:07 78° E
USA 234 3.3 23:17:39 67° WSW 23:17:39 67° WSW 23:24:02 10° NW
Cosmos 2333 Rocket 3.6 23:13:47 15° WSW 23:17:54 35° WNW 23:23:10 10° N
Cosmos 2278 Rocket 2.6 23:12:47 10° NNW 23:17:25 61° NNW 23:17:25 61° NNW
S3M 4.2 23:18:41 62° W 23:18:55 63° W 23:25:05 10° N
Cosmos 2219 Rocket 4.4 23:27:07 10° WSW 23:31:19 21° WNW 23:35:34 10° N
SeaSat 1 3.8 23:38:34 35° NW 23:38:34 35° NW 23:41:31 10° NNW
H-2A R/B 3.7 23:47:20 27° WNW 23:47:20 27° WNW 23:50:12 10° NNW
